This demonstration page uses our WeatherBlox Daily Observations layout. Learn more.

Left ArrowRight Arrow

39.51506, -84.39828

Hourly Observations for April 23, 2018

Temp ( °F °C ) Dew Point ( °F °C ) Humidity (%) Winds ( mph kmh ) Pressure ( in mb ) Visibility ( mi km ) Precip ( " mm )
12:15 am 00:15 Clear 51 10.6 34 1.1 52 52 N 9 15 30.15 1021 10 16 0.00 0.00
12:35 am 00:35 Clear 53 11.4 33 0.3 47 47 NNE 9 15 30.15 1021 10 16 0.00 0.00
12:55 am 00:55 Clear 53 11.4 34 0.9 49 49 N 8 13 30.15 1021 10 16 0.00 0.00
1:15 am 01:15 Clear 52 10.9 35 1.5 53 53 NNE 8 13 30.15 1021 10 16 0.00 0.00
1:35 am 01:35 Clear 51 10.5 35 1.7 55 55 N 7 11 30.15 1021 10 16 0.00 0.00
1:55 am 01:55 Clear 51 10.5 35 1.6 54 54 NNE 7 11 30.15 1021 10 16 0.00 0.00
2:15 am 02:15 Clear 50 10 35 1.6 56 56 NNE 5 7 30.15 1021 10 16 0.00 0.00
2:35 am 02:35 Clear 51 10.4 34 1.1 53 53 NNE 8 13 30.12 1020 10 16 0.00 0.00
2:55 am 02:55 Clear 51 10.6 34 1 52 52 NNE 7 11 30.12 1020 10 16 0.00 0.00
3:15 am 03:15 Clear 51 10.6 34 1.1 52 52 NNE 6 9 30.12 1020 10 16 0.00 0.00
3:35 am 03:35 Clear 51 10.3 34 0.9 52 52 NNE 6 9 30.12 1020 10 16 0.00 0.00
3:55 am 03:55 Clear 49 9.4 34 1.2 57 57 Calm 30.12 1020 10 16 0.00 0.00
4:15 am 04:15 Clear 52 11 33 0.5 49 49 N 5 7 30.12 1020 10 16 0.00 0.00
4:35 am 04:35 Clear 50 9.9 34 1.1 55 55 N 5 7 30.12 1020 10 16 0.00 0.00
4:55 am 04:55 Clear 51 10.5 34 0.9 52 52 N 6 9 30.12 1020 10 16 0.00 0.00
5:15 am 05:15 Clear 51 10.4 33 0.8 52 52 N 6 9 30.12 1020 10 16 0.00 0.00
5:35 am 05:35 Clear 51 10.6 33 0.7 51 51 N 3 6 30.12 1020 10 16 0.00 0.00
5:55 am 05:55 Clear 50 10.2 34 1.3 54 54 NNW 3 6 30.12 1020 10 16 0.00 0.00
6:15 am 06:15 Clear 51 10.8 34 0.9 51 51 N 3 6 30.12 1020 10 16 0.00 0.00
6:35 am 06:35 Clear 52 10.9 34 0.9 50 50 NE 6 9 30.12 1020 10 16 0.00 0.00
6:55 am 06:55 Sunny 46 8 37 2.5 69 69 NNW 3 6 30.12 1020 10 16 0.00 0.00
7:15 am 07:15 Sunny 46 7.5 38 3.2 74 74 NNE 5 7 30.15 1021 10 16 0.00 0.00
7:35 am 07:35 Sunny 50 10.1 38 3.5 64 64 NNE 6 9 30.15 1021 10 16 0.00 0.00
7:55 am 07:55 Sunny 53 11.7 37 2.7 54 54 N 6 9 30.15 1021 10 16 0.00 0.00
8:15 am 08:15 Sunny 53 11.9 38 3.5 57 57 N 5 7 30.15 1021 10 16 0.00 0.00
8:35 am 08:35 Sunny 55 12.7 39 3.8 55 55 N 5 7 30.15 1021 10 16 0.00 0.00
8:55 am 08:55 Sunny 56 13.4 40 4.6 56 56 NNE 3 6 30.15 1021 10 16 0.00 0.00
9:15 am 09:15 Sunny 58 14.6 41 4.8 52 52 E 6 9 30.15 1021 10 16 0.00 0.00
9:35 am 09:35 Partly Cloudy 60 15.6 42 5.7 52 52 E 8 13 30.15 1021 10 16 0.00 0.00
9:55 am 09:55 Mostly Cloudy 61 16 42 5.8 51 51 E 6 9 30.15 1021 10 16 0.00 0.00
10:15 am 10:15 Cloudy 63 17 44 6.8 51 51 ESE 8 13 30.12 1020 10 16 0.00 0.00
10:35 am 10:35 Sunny 63 17.2 44 6.6 50 50 ESE 10 17 30.12 1020 10 16 0.00 0.00
10:55 am 10:55 Cloudy 63 17.1 45 7.1 52 52 ESE 7 11 30.12 1020 10 16 0.00 0.00
11:15 am 11:15 Cloudy 63 17.1 45 7.3 53 53 ESE 7 11 30.12 1020 10 16 0.00 0.00
11:35 am 11:35 Cloudy with Light Rain 62 16.8 46 7.7 55 55 ESE 7 11 30.12 1020 10 16 0.00 0.00
11:55 am 11:55 Cloudy with Light Rain 61 16 48 8.8 63 63 SE 12 19 30.15 1021 10 16 0.00 0.00
12:15 pm 12:15 Cloudy with Light Rain 59 14.8 50 9.9 73 73 SE 10 17 30.15 1021 10 16 0.00 0.00
12:35 pm 12:35 Cloudy with Rain 57 13.9 51 10.7 81 81 SE 7 11 30.18 1022 5 8 0.03 0.76
12:55 pm 12:55 Cloudy with Rain 56 13.4 52 11.3 87 87 ESE 5 7 30.18 1022 4 6 0.06 1.52
1:15 pm 13:15 Cloudy with Rain 56 13.4 52 11.3 87 87 E 5 7 30.15 1021 5 8 0.03 0.76
1:35 pm 13:35 Cloudy with Light Rain 56 13.3 53 11.7 90 90 E 3 6 30.15 1021 5 8 0.06 1.52
1:55 pm 13:55 Cloudy with Light Rain 56 13.4 53 11.9 91 91 E 5 7 30.15 1021 3 5 0.11 2.79
2:15 pm 14:15 Cloudy with Light Rain 56 13.4 54 12.3 93 93 NE 3 6 30.15 1021 7 11 0.03 0.76
2:35 pm 14:35 Cloudy with Rain 56 13.6 54 12.4 93 93 ENE 6 9 30.15 1021 5 8 0.05 1.27
2:55 pm 14:55 Cloudy with Rain 57 13.8 54 12.1 90 90 ESE 10 17 30.15 1021 5 8 0.10 2.54
3:15 pm 15:15 Cloudy with Light Rain 57 14 54 12.2 89 89 E 10 17 30.15 1021 10 16 0.03 0.76
3:35 pm 15:35 Cloudy with Light Rain 58 14.5 54 12 85 85 E 14 22 30.15 1021 10 16 0.03 0.76
3:55 pm 15:55 Cloudy with Light Rain 58 14.2 53 11.7 85 85 ESE 14 22 30.15 1021 7 11 0.03 0.76
4:15 pm 16:15 Cloudy with Light Rain 56 13.5 54 12.1 91 91 ESE 10 17 30.15 1021 3 5 0.04 1.02
4:35 pm 16:35 Cloudy with Light Rain 56 13.6 54 12.2 91 91 E 8 13 30.15 1021 4 6 0.05 1.27
4:55 pm 16:55 Cloudy with Light Rain 56 13.3 54 12 92 92 E 9 15 30.12 1020 4 6 0.06 1.52
5:15 pm 17:15 Cloudy with Light Rain 56 13.3 53 11.6 90 90 E 14 22 30.12 1020 10 16 0.01 0.25
5:35 pm 17:35 Cloudy with Light Rain 56 13.1 53 11.4 90 90 E 14 22 30.12 1020 10 16 0.01 0.25
5:55 pm 17:55 Cloudy with Light Rain 55 12.9 52 11.3 90 90 ENE 10 17 30.12 1020 10 16 0.02 0.51
6:15 pm 18:15 Cloudy with Light Rain 55 12.5 51 10.8 89 89 ENE 13 20 30.12 1020 10 16 0.00 0.00
6:35 pm 18:35 Cloudy with Light Rain 54 12.4 51 10.8 90 90 ENE 12 19 30.12 1020 10 16 0.01 0.25
6:55 pm 18:55 Cloudy with Light Rain 54 12.1 51 10.7 91 91 E 8 13 30.12 1020 7 11 0.02 0.51
7:15 pm 19:15 Cloudy with Light Rain 54 12 51 10.4 90 90 ENE 9 15 30.12 1020 10 16 0.01 0.25
7:35 pm 19:35 Cloudy with Light Rain 53 11.7 50 9.9 89 89 E 8 13 30.12 1020 7 11 0.02 0.51
7:55 pm 19:55 Cloudy with Light Rain 53 11.6 49 9.7 88 88 ENE 7 11 30.12 1020 10 16 0.03 0.76
8:15 pm 20:15 Mostly Cloudy 53 11.4 50 9.8 90 90 ENE 9 15 30.12 1020 10 16 0.00 0.00
8:35 pm 20:35 Mostly Cloudy 53 11.5 49 9.6 88 88 ENE 10 17 30.09 1019 10 16 0.00 0.00
8:55 pm 20:55 Cloudy with Light Rain 53 11.5 49 9.6 88 88 ENE 9 15 30.09 1019 10 16 0.00 0.00
9:15 pm 21:15 Cloudy 53 11.6 49 9.6 88 88 E 10 17 30.09 1019 10 16 0.00 0.00
9:35 pm 21:35 Cloudy 53 11.4 49 9.6 89 89 ENE 8 13 30.09 1019 10 16 0.00 0.00
9:55 pm 21:55 Cloudy 53 11.6 49 9.4 86 86 ENE 8 13 30.09 1019 10 16 0.00 0.00
10:15 pm 22:15 Cloudy 53 11.6 49 9.3 86 86 ENE 8 13 30.09 1019 10 16 0.00 0.00
10:35 pm 22:35 Cloudy 53 11.5 49 9.4 87 87 NE 6 9 30.09 1019 10 16 0.00 0.00
10:55 pm 22:55 Cloudy 53 11.6 49 9.2 85 85 ENE 9 15 30.09 1019 10 16 0.00 0.00
11:15 pm 23:15 Cloudy 53 11.5 49 9.2 86 86 ENE 8 13 30.09 1019 10 16 0.00 0.00
11:35 pm 23:35 Cloudy 53 11.5 49 9.2 86 86 ENE 7 11 30.09 1019 10 16 0.00 0.00
11:55 pm 23:55 Cloudy 53 11.5 49 9.3 86 86 ENE 8 13 30.06 1018 10 16 0.00 0.00

Powered by AerisWeather